Regional Weather Roundup
Issued by NWS Lake Charles, LA

Home | Current Version | Previous Version | Text Only | Print | Product List | Glossary On
Versions: 1 2 3 4 5 6 7 8 9 10 11 12 13 14 15 16 17 18 19 20 21 22 23 24 25 26 27 28 29 30 31 32 33 34 35 36 37 38 39 40 41 42 43 44 45 46 47 48 49 50
000
ASUS44 KLCH 231210
RWRLCH
RWRLCH
REGIONAL WEATHER ROUNDUP
NATIONAL WEATHER SERVICE LAKE CHARLES LA
700 AM CDT TUE SEP 23 2014

Note: "fair" indicates few or no clouds below 12,000 feet with no
significant weather and/or obstructions to visibility.


ACROSS SOUTHEAST TEXAS

CITY           SKY/WX    TMP DP  RH WIND       PRES   REMARKS
BEAUMONT       CLEAR     64  56  75 NE9       30.09R
BEAUMONT CITY    N/A     60  55  85 NE5       30.11R
ORANGE         SUNNY     62  56  81 N3        30.12R
JASPER         CLEAR     60  54  82 NE3       30.15R
$$

ACROSS CENTRAL LOUISIANA

CITY           SKY/WX    TMP DP  RH WIND       PRES   REMARKS
LEESVILLE      CLEAR     60  55  83 VRB5      30.13R
FULLERTON        N/A     58  54  86 CALM      30.11S
ALEXANDRIA INT CLEAR     57  53  86 CALM      30.12R
ESLER FIELD    CLEAR     57  54  89 CALM      30.14R
DERIDDER         N/A     59  55  85 CALM      30.14S
OAKDALE        SUNNY     57  55  91 CALM      30.12S
OPELOUSAS        N/A     57  55  92 N5        30.11R
$$

ACROSS SOUTHWEST AND SOUTH CENTRAL LOUISIANA

CITY           SKY/WX    TMP DP  RH WIND       PRES   REMARKS
SULPHUR        SUNNY     65  56  72 NE7       30.11R
LAKE CHARLES   CLEAR     61  56  83 NE9       30.10R
CHENNAULT INT  CLEAR     61  55  82 NE8       30.10S
CAMERON PHI      N/A     64  59  82 NE10      30.11S
DEQUINCY         N/A     59  55  85 N3        30.12R
JENNINGS         N/A     58  56  92 NE5       30.10S
LAFAYETTE      CLEAR     59  57  93 NE6       30.09R
NEW IBERIA     CLEAR     63  57  81 NE8       30.09R
ABBEVILLE        N/A     58  56  91 CALM      30.09R
PATTERSON      CLEAR     63  57  82 NE7       30.08F
SALT POINT       N/A     66  60  81 NE6       30.05S
$$

SELECTED SITES ACROSS THE REGION

CITY           SKY/WX    TMP DP  RH WIND       PRES   REMARKS
HOUSTON BUSH   PTCLDY    64  55  72 NE7       30.11R
HOUSTON HOBBY  PTCLDY    66  57  72 NE10      30.09R
GALVESTON      CLEAR     70  62  76 NE15      30.08R
COLLEGE STAT   CLEAR     63  56  78 NE7       30.12S
CONROE         CLEAR     62  55  77 N5        30.13R
HUNTSVILLE     CLEAR     58  55  90 E3        30.14R
LUFKIN         CLEAR     61  54  77 N6        30.15R
SHREVEPORT     PTCLDY    59  52  77 NE3       30.17S
MONROE         CLEAR     56  52  86 N5        30.17R
NATCHEZ MS     CLEAR     55  52  88 NE3       30.14R
BATON ROUGE    CLEAR     60  53  77 NE6       30.10R
N.O. INTL ARPT PTCLDY    71  57  61 NE12      30.07R
SLIDELL        CLEAR     56  53  90 N5        30.08S
$$

MARINE REPORTS

STATION/POSITION TIME  TEMP    WIND        PRES    VSBY  WAVE
                       AIR SEA DIR/SP/G                  HT/PER
                 (UTC) (F)     (DEG/KT/KT) (MB)    (MI)  (FT/S)
BUOY 30 S HIGH I 1200   76 83   50/ 17/ 21 1017.2R         5/ 6
SEA RIM ST PARK  1200   66      40/  9/ 11 1019.2R
PORT ARTHUR      1200      83   40/  2/  7 1019.0R
SABINE PASS N    1200   66 82   30/  8/ 10 1018.8R
TEXAS POINT      1200   65 82   40/  9/ 11 1018.8R
CALCASIEU PASS   1200   64 81   60/  9/ 12 1019.5S
LK CHARLES BEACH 1200   63 81              1019.2S
MARSH ISLAND     NOT AVBL
FRESH WATER LOCK 1200   65 82   10/  7/ 11 1017.9S
AMERADA PASS     1200   68 80   60/  5/ 10 1017.3S
$$


USA.gov is the U.S. government's official web portal to all federal, state and local government web resources and services.